Regional Weather Roundup
Issued by NWS

Home | Current Version | Previous Version | Text Only | Print | Product List | Glossary Off
Versions: 1 2 3 4 5 6 7 8 9 10 11 12 13 14 15 16 17 18 19 20 21 22 23 24 25 26 27 28 29 30 31 32 33 34 35 36 37 38 39 40 41 42 43 44 45 46 47 48 49 50

929
ASUS43 KDTX 271101
RWRMI
MICHIGAN HOURLY REGIONAL WEATHER ROUNDUP
NATIONAL WEATHER SERVICE DETROIT/PONTIAC MI
700 AM EDT THU JUL 27 2017

NOTE: "FAIR" INDICATES FEW OR NO CLOUDS BELOW 12,000 FEET WITH NO
SIGNIFICANT WEATHER AND/OR OBSTRUCTION TO VISIBILITY.

MIZ047>049-052>055-059>063-066>070-074>076-081>083-271200-
SOUTHEAST LOWER MICHIGAN

CITY           SKY/WX    TMP DP  RH WIND       PRES   REMARKS
ADRIAN         CLOUDY    66  64  93 CALM      29.97S
ALMA           RAIN      68  66  92 NW8       29.98R
ANN ARBOR      CLOUDY    64  64 100 CALM      29.96S
BAD AXE        CLOUDY    67  66  96 CALM      29.96S FOG
CARO           CLOUDY    67  65  96 CALM      29.95S FOG
DETROIT CITY   CLOUDY    71  68  90 CALM      29.96R
DETROIT        CLOUDY    70  67  90 CALM      29.96S
FLINT          CLOUDY    68  64  87 S5        29.96R
GROSSE ILE     CLOUDY    71  65  83 CALM      29.95S
HILLSDALE      CLOUDY    64  61  88 CALM      29.97R
HOWELL         CLOUDY    67  64  89 CALM      29.97S

CITY           SKY/WX    TMP DP  RH WIND       PRES   REMARKS
JACKSON        CLOUDY    66  62  87 CALM      29.96S
LAMBERTVILLE   CLOUDY    66  64  94 CALM      29.96R
LANSING        CLOUDY    70  63  78 CALM      29.96S
LAPEER         CLOUDY    66  65  97 CALM      29.97R
MASON          CLOUDY    65  63  93 CALM      29.97R
MONROE         CLOUDY    66  65  97 CALM      29.95S
MT. CLEMENS    CLOUDY    69  69 100 CALM      29.95R
PONTIAC        CLOUDY    69  67  93 CALM      29.96R
PORT HOPE        N/A     69  66  90 W5        29.94S
PORT HURON     CLOUDY    66  66 100 CALM      29.96S FOG
TRI CITIES     RAIN      69  69 100 CALM      29.96R FOG
MIDLAND        DRIZZLE   68  68 100 CALM      29.95S
TROY           CLOUDY    71  67  89 CALM      29.98S
SAGINAW HB     CLOUDY    68  64  88 CALM      29.96R
$$
MIZ043>046-050>051-056>058-064>065-071>073-077>080-271200-
SOUTHWEST LOWER MICHIGAN

CITY           SKY/WX    TMP DP  RH WIND       PRES   REMARKS
BATTLE CREEK   CLOUDY    67  65  93 CALM      29.97R
BENTON HARBOR  MOCLDY    70  66  87 CALM      29.93R
BIG RAPIDS     CLOUDY    67  66  95 CALM      29.96S FOG
COLDWATER      CLOUDY    66  66 100 CALM      29.96R
FREMONT        CLOUDY    69  69 100 CALM      29.95S FOG
HOLLAND        CLOUDY    71  67  87 CALM      29.95R
GRAND RAPIDS   CLOUDY    70  67  90 CALM      29.95R
IONIA          CLOUDY    70  66  86 CALM      29.95R
KALAMAZOO      CLOUDY    67  63  87 NE3       29.95S
LUDINGTON      CLOUDY    67  67 100 CALM      29.95R FOG
MARSHALL       CLOUDY    64  63  97 CALM      29.95S
MOUNT PLEASANT RAIN      69  67  92 CALM      29.96S
MUSKEGON       LGT RAIN  71  68  90 E5        29.95R
SOUTH HAVEN    MOCLDY    68  67  98 CALM      29.94S
$$
MIZ016>042-271200-
NORTHERN LOWER MICHIGAN

CITY           SKY/WX    TMP DP  RH WIND       PRES   REMARKS
ALPENA         CLEAR     65  65 100 CALM      29.97R FOG
BELLAIRE       FOG       62  61  96 CALM      29.98R VSB 1/4
CADILLAC       CLOUDY    69  66  89 N7        29.98S
CHARLEVOIX     FOG       63  63 100 CALM      30.01R VSB<1/4
FRANKFORT      CLEAR     67  67  98 CALM      29.98R
GAYLORD        FOG       63  61  93 CALM      30.00R VSB 1/4
GRAYLING       CLOUDY    65  63  93 N6        30.00R FOG
HARBOR SPRINGS FOG       62  61  96 CALM      29.98R VSB 1/4
HOUGHTON LAKE  CLOUDY    67  66  97 CALM      29.99R FOG
MANISTEE       CLEAR     64  64 100 CALM      29.96R
OSCODA         CLOUDY    67  66  97 CALM      29.95R FOG
PELLSTON       CLEAR     60  60 100 CALM      29.98R
ROGERS CITY    FOG       62  61  98 NW3       29.99R VSB 1/2
TRAVERSE CITY  PTCLDY    68  66  93 N6        29.97R
$$
MIZ007>008-015-271200-
EASTERN UPPER MICHIGAN

CITY           SKY/WX    TMP DP  RH WIND       PRES   REMARKS
KINROSS        CLEAR     57  56  96 N7        29.99R
MACKINAC ISLAN CLEAR     60  60 100 N7        29.98R FOG
NEWBERRY       CLEAR     55  55  97 N5        30.00R
S. S. MARIE    CLEAR     59  56  89 NW7       29.98R
MUNISING         N/A     54  54 100 S5        30.01R
$$
MIZ004>006-011>014-085-271200-
CENTRAL UPPER MICHIGAN

CITY           SKY/WX    TMP DP  RH WIND       PRES   REMARKS
MANISTIQUE     CLEAR     57  54  89 N7        29.99R
ESCANABA       CLEAR     59  57  93 NW5       30.01R
MENOMINEE      CLEAR     61  59  93 N6        30.01R
SAWYER-GWINN   CLEAR     61  55  82 N9        30.05R
$$
MIZ001>003-009>011-084-271200-
WESTERN UPPER MICHIGAN

CITY           SKY/WX    TMP DP  RH WIND       PRES   REMARKS
IRON MOUNTAIN  CLEAR     57  53  86 NW3       30.03R
HOUGHTON       CLEAR     60  54  80 NE3       30.05R
COPPER HARBOR    N/A     61  53  75 CALM      30.05R
IRONWOOD       CLEAR     53  52  96 CALM      30.08R
$$

ABBREVIATIONS USED IN REMARKS
   TC - TEMPERATURE IN CELSIUS
  WCI - WIND CHILL INDEX
   HX - HEAT INDEX
  VSB - VISIBILITY





USA.gov is the U.S. government's official web portal to all federal, state and local government web resources and services.